This is the latest recevied weather packets stored in our database for station/object N3WPH. If no packets are shown the sender has not sent any weather packets the latest 10 day(s).
| Time | Temp. | Humidity | Pressure | Rain* | Wind** | Luminosity | Snow |
|---|---|---|---|---|---|---|---|
| 1777912426 | 20° C | 41% | 1010.4 hPa | 0 mm | - | 769 W/m² | - |
| 1777912122 | 19.44° C | 40% | 1010.4 hPa | 0 mm | - | 770 W/m² | - |
| 1777911818 | 19.44° C | 39% | 1010.5 hPa | 0 mm | - | 769 W/m² | - |
| 1777911515 | 18.89° C | 40% | 1010.8 hPa | 0 mm | - | 788 W/m² | - |
| 1777911212 | 19.44° C | 40% | 1010.7 hPa | 0 mm | - | 526 W/m² | - |
| 1777910909 | 19.44° C | 40% | 1010.5 hPa | 0 mm | - | 878 W/m² | - |
| 1777910606 | 18.33° C | 40% | 1010.6 hPa | 0 mm | - | 861 W/m² | - |
| 1777910303 | 18.89° C | 37% | 1010.9 hPa | 0 mm | - | 548 W/m² | - |
| 1777910000 | 19.44° C | 39% | 1011.1 hPa | 0 mm | - | 876 W/m² | - |
| 1777909697 | 18.33° C | 40% | 1011 hPa | 0 mm | - | 855 W/m² | - |
| 1777909394 | 18.33° C | 41% | 1011.3 hPa | 0 mm | - | 787 W/m² | - |
| 1777909092 | 18.33° C | 40% | 1011.3 hPa | 0 mm | - | 735 W/m² | - |
| 1777908790 | 17.78° C | 38% | 1011.3 hPa | 0 mm | - | 709 W/m² | - |
| 1777908486 | 18.33° C | 38% | 1011.4 hPa | 0 mm | - | 716 W/m² | - |
| 1777908183 | 18.33° C | 41% | 1011.4 hPa | 0 mm | - | 702 W/m² | - |
| 1777907879 | 17.78° C | 39% | 1011.5 hPa | 0 mm | - | 695 W/m² | - |
| 1777907575 | 17.22° C | 40% | 1011.6 hPa | 0 mm | - | 695 W/m² | - |
| 1777907270 | 16.67° C | 40% | 1011.6 hPa | 0 mm | - | 706 W/m² | - |
| 1777906968 | 16.67° C | 39% | 1011.5 hPa | 0 mm | - | 605 W/m² | - |
| 1777906665 | 17.22° C | 38% | 1011.8 hPa | 0 mm | - | 665 W/m² | - |
| 1777906361 | 17.22° C | 41% | 1011.9 hPa | 0 mm | - | 655 W/m² | - |
| 1777906058 | 16.67° C | 39% | 1011.9 hPa | 0 mm | - | 633 W/m² | - |
| 1777905754 | 16.67° C | 41% | 1011.8 hPa | 0 mm | - | 621 W/m² | - |
| 1777905452 | 16.67° C | 38% | 1011.8 hPa | 0 mm | - | 619 W/m² | - |
| 1777905149 | 16.67° C | 41% | 1011.7 hPa | 0 mm | - | 598 W/m² | - |
* Rain latest hour (hover to see other rain measurements)
** Current wind speed in m/s (hover to see current wind gust speed)